Miscellaneous Local Product
Issued by NWS Hastings, NE

Home | Current Version | Previous Version | Text Only | Print | Product List | Glossary Off
Versions: 1 2 3 4 5 6 7 8 9 10 11 12 13 14 15 16 17 18 19 20 21 22 23 24 25 26 27 28 29 30 31 32 33 34 35 36 37 38 39 40 41 42 43 44 45 46 47 48 49 50

000
AXUS43 KGID 290302
MISGRI

GID CWA HOURLY WEATHER ROUNDUP
NATIONAL WEATHER SERVICE HASTINGS NE
1000 PM CDT TUE OCT 28 2014

NOTE: "FAIR" INDICATES FEW OR NO CLOUDS BELOW 12,000 FEET WITH NO
SIGNIFICANT WEATHER AND/OR OBSTRUCTIONS TO VISIBILITY.

...SOUTH CENTRAL NEBRASKA...

CITY           SKY/WX    TMP DP  RH WIND       PRES   REMARKS
GRAND ISLAND   CLEAR     40  26  57 NW5       30.18R
HASTINGS       CLEAR     40  26  57 NW3       30.18R
KEARNEY        CLEAR     41  21  45 NW6       30.19R
ORD            CLEAR     34  23  64 N6        30.16R WCI  29
YORK           CLEAR     37  30  75 N6        30.17R WCI  33
AURORA         CLEAR     38  25  60 N8        30.18R WCI  32
LEXINGTON      CLEAR     33  24  70 W3        30.19R
HOLDREGE       CLEAR     39  23  53 CALM      30.18R
HEBRON         CLEAR     43  27  53 CALM      30.17R

...NEBRASKA PANHANDLE...

CITY           SKY/WX    TMP DP  RH WIND       PRES   REMARKS
CHADRON        CLEAR     28  21  75 SW5       30.15S WCI  23
ALLIANCE       PTCLDY    31  22  69 CALM      30.16S
SCOTTSBLUFF    PTCLDY    37  29  72 NE5       30.16S WCI  33
SIDNEY         CLEAR     30  22  72 CALM      30.18R

...WESTERN AND NORTH CENTRAL NEBRASKA...

CITY           SKY/WX    TMP DP  RH WIND       PRES   REMARKS
VALENTINE      CLEAR     29  22  75 SW5       30.17R WCI  24
AINSWORTH      CLEAR     32  24  71 W3        30.17R
ONEILL         CLEAR     37  29  72 NW5       30.17R WCI  34
BROKEN BOW     CLEAR     33  20  58 CALM      30.17R
IMPERIAL       PTCLDY    42  21  43 CALM      30.18S
NORTH PLATTE   CLEAR     32  22  66 CALM      30.18R
MCCOOK         CLEAR     36  24  62 N5        30.18R WCI  32

...EASTERN NEBRASKA...

CITY           SKY/WX    TMP DP  RH WIND       PRES   REMARKS
NORFOLK        CLEAR     35  30  82 W5        30.16R WCI  31
SO SIOUX CITY  CLOUDY    42  32  67 W6        30.14R
TEKAMAH        CLEAR     39  32  76 NW7       30.16R WCI  34
COLUMBUS       CLEAR     39  27  60 NW5       30.18R
ALBION         CLEAR     32  26  80 NW5       30.17R WCI  27
OMAHA EPPLEY   CLEAR     40  33  76 N6        30.16R
OFFUTT AFB     CLEAR     43  34  70 N7        30.15R
MILLARD        CLEAR     47  33  57 N3        30.16R
LINCOLN        CLEAR     36  30  79 N3        30.18R
NEBRASKA CITY  CLEAR     44  27  51 NW7       30.15R
BEATRICE       CLEAR     39  30  71 CALM      30.16R
FALLS CITY     CLEAR     46  30  53 NW6       30.14R

...NORTHERN KANSAS...

CITY           SKY/WX    TMP DP  RH WIND       PRES   REMARKS
GOODLAND       PTCLDY    37  24  59 SE8       30.20S WCI  31
HILL CITY      CLEAR     36  26  67 CALM      30.18S
PHILLIPSBURG   CLEAR     41  30  65 NW6       30.18R
SMITH CENTER   CLEAR     45  27  49 N5        30.18R
BELOIT         CLEAR     41  34  75 W3        30.16R
HAYS           PTCLDY    43  28  56 NW6       30.18R
RUSSELL        CLEAR     48  31  51 W5        30.16R
CONCORDIA      CLEAR     45  32  60 N8        30.16R
SALINA         CLEAR     50  32  50 CALM      30.17R
TOPEKA         CLEAR     48  40  73 CALM      30.15R



USA.gov is the U.S. government's official web portal to all federal, state and local government web resources and services.